[[{"header":{"parameterUnit":"m.s-1","parameterCategory":1,"la1":30.2992,"la2":30.254,"lo1":-89.0895,"lo2":-89.0443,"dy":0.0025,"dx":0.0025,"nx":19,"ny":19,"refTime":"2026-03-29T21:00:00:Z","depth":0,"parameterNumber":2,"parameterNumberName":"U-component_of_WINDS"},"data":[0,0,0,-8.2889,-8.2891,-8.2936,-8.2935,-8.3043,-8.3044,0,0,0,0,0,0,0,0,0,0,0,-8.2906,-8.2907,-8.2889,-8.2891,-8.2936,-8.2935,-8.3043,-8.3044,0,0,0,0,0,0,0,0,0,0,0,-8.2905,-8.2907,-8.2909,-8.2891,-8.2936,-8.2935,-8.3042,-8.2991,0,0,0,0,0,0,0,0,0,0,-8.2938,-8.2983,-8.2906,-8.2909,-8.2892,-8.2936,-8.2935,-8.2987,-8.2994,-8.3044,0,-8.3097,0,-8.3073,-8.3055,-8.3055,0,0,0,-8.2868,-8.2978,-8.2963,-8.2909,-8.2892,-8.2936,-8.2909,-8.299,-8.2998,-8.3053,-8.3098,-8.31,-8.3075,-8.3056,-8.3057,-8.3422,-8.3425,0,0,-8.2866,-8.293,-8.2958,-8.297,-8.2966,-8.2908,-8.2911,-8.2994,-8.3047,-8.3098,-8.3102,-8.3076,-8.3057,-8.3058,-8.3419,-8.3423,0,0,0,-8.2874,-8.2929,-8.2911,-8.2966,-8.2971,-8.291,-8.2913,-8.3043,-8.3032,-8.3103,-8.3078,-8.3058,-8.306,-8.3416,-8.342,-8.3619,0,0,0,-8.2871,-8.2933,-8.2911,-8.2951,-8.297,-8.3007,-8.2961,-8.3026,-8.3033,-8.3077,-8.3058,-8.3061,-8.3413,-8.3418,-8.3607,-8.3701,0,0,0,-8.2892,-8.2935,-8.2952,-8.2954,-8.2976,-8.3004,-8.2997,-8.3026,-8.302,-8.3056,-8.3062,-8.3411,-8.3417,-8.3596,-8.3683,-8.3816,0,0,0,-8.2933,-8.3128,-8.2957,-8.3165,-8.2976,-8.3128,-8.2996,-8.3106,-8.316,-8.3059,-8.3413,-8.342,-8.3592,-8.3672,-8.3805,-8.3938,-8.4,0,0,-8.3214,-8.3164,-8.3281,-8.3129,-8.3328,-8.3116,-8.3343,-8.3332,-8.3277,-8.3377,-8.3385,-8.3611,-8.3682,-8.3814,-8.4327,-8.4377,0,0,0,-8.3392,-8.3477,-8.3515,-8.3571,-8.3569,-8.3574,-8.3522,-8.3518,-8.36,-8.3342,-8.3693,-8.3734,-8.3808,-8.3869,-8.3911,-8.3971,-8.3451,-8.3451,-8.345,-8.3879,-8.3799,-8.3988,-8.3915,-8.3971,-8.3917,-8.3955,-8.394,-8.3842,-8.3928,-8.3956,-8.4277,-8.4351,-8.4382,-8.4445,-8.4021,-8.4022,-8.4022,-8.4023,-8.4282,-8.4389,-8.4258,-8.4393,-8.4308,-8.4421,-8.4378,-8.4306,-8.4398,-8.4249,-8.431,-8.4152,-8.4439,-8.449,-8.4037,-8.4034,-8.4033,-8.4031,-8.403,-8.4591,-8.4628,-8.4622,-8.4696,-8.4762,-8.4681,-8.4778,-8.4697,-8.4621,-8.4683,-8.4704,-8.47,-8.4686,-8.4699,-8.47,-8.4701,-8.4702,-8.4703,-8.4704,-8.4913,-8.49,-8.499,-8.5007,-8.5033,-8.5057,-8.5007,-8.5031,-8.5036,-8.4969,-8.4969,-8.4864,-8.4483,-8.4388,-8.472,-8.4717,-8.4715,-8.4714,-8.4713,-8.5348,-8.5238,-8.5378,-8.5405,-8.5418,-8.549,-8.5387,-8.5443,-8.545,-8.5501,-8.5383,-8.5115,-8.5057,-8.5023,-8.4944,-8.54,-8.54,-8.54,-8.54,-8.5608,-8.5572,-8.5697,-8.5746,-8.5784,-8.5706,-8.5868,-8.5833,-8.5779,-8.5779,-8.5702,-8.5591,-8.556,-8.552,-8.5475,-8.54,-8.5962,-8.5963,-8.5963,-8.587,-8.5835,-8.5987,-8.5934,-8.5939,-8.5946,-8.6096,-8.6157,-8.6073,-8.5984,-8.5778,-8.5754,-8.5573,-8.5519,-8.5423,-8.5355,-8.5215,0,0]},{"header":{"parameterUnit":"m.s-1","parameterCategory":1,"la1":30.2992,"la2":30.254,"lo1":-89.0895,"lo2":-89.0443,"dy":0.0025,"dx":0.0025,"nx":19,"ny":19,"refTime":"2026-03-29T21:00:00:Z","depth":0,"parameterNumber":3,"parameterNumberName":"V-component_of_WINDS"},"data":[0,0,0,1.4691,1.469,1.4637,1.4637,1.4562,1.4561,0,0,0,0,0,0,0,0,0,0,0,1.4703,1.4702,1.4691,1.469,1.4637,1.4637,1.4562,1.4561,0,0,0,0,0,0,0,0,0,0,0,1.4703,1.4702,1.4702,1.469,1.4637,1.4637,1.4562,1.4604,0,0,0,0,0,0,0,0,0,0,1.4657,1.4664,1.4703,1.4702,1.4689,1.4637,1.4637,1.4607,1.4602,1.4583,0,1.4566,0,1.4563,1.4556,1.4556,0,0,0,1.4692,1.4668,1.4658,1.4702,1.4689,1.4638,1.4662,1.4604,1.4599,1.4576,1.4565,1.4562,1.4561,1.4555,1.4555,1.4443,1.4443,0,0,1.4695,1.4691,1.4661,1.4654,1.4663,1.4663,1.466,1.4601,1.4587,1.4565,1.4561,1.456,1.4555,1.4554,1.4444,1.4443,0,0,0,1.4702,1.4692,1.4684,1.4657,1.4648,1.4662,1.4658,1.459,1.4588,1.456,1.4559,1.4554,1.4553,1.4444,1.4443,1.4409,0,0,0,1.4704,1.4697,1.4685,1.4682,1.4649,1.4618,1.4648,1.4592,1.4585,1.456,1.4554,1.4553,1.4445,1.4444,1.4412,1.4392,0,0,0,1.4707,1.4697,1.4688,1.4682,1.4659,1.462,1.4614,1.459,1.4585,1.4555,1.4552,1.4446,1.4444,1.4414,1.4396,1.4363,0,0,0,1.471,1.4656,1.4688,1.4628,1.466,1.46,1.4614,1.4569,1.454,1.4554,1.4445,1.4444,1.4414,1.4398,1.4365,1.4333,1.4319,0,0,1.464,1.4648,1.4613,1.464,1.4574,1.4608,1.4536,1.4512,1.4512,1.4466,1.4463,1.4411,1.4396,1.4363,1.4248,1.4237,0,0,0,1.4589,1.4564,1.4548,1.4522,1.4505,1.4489,1.4477,1.4469,1.4431,1.4488,1.439,1.4382,1.4362,1.4347,1.4338,1.4322,1.4437,1.4437,1.4437,1.4481,1.4488,1.4432,1.4433,1.4407,1.4399,1.4378,1.4366,1.4376,1.4354,1.4339,1.4269,1.4251,1.4244,1.4227,1.4324,1.4324,1.4324,1.4323,1.4379,1.4345,1.4366,1.4319,1.4326,1.4286,1.4276,1.4287,1.425,1.4279,1.4262,1.4293,1.4232,1.4218,1.4321,1.4321,1.4322,1.4322,1.4322,1.4308,1.4293,1.4287,1.4252,1.4225,1.4228,1.4193,1.4201,1.4207,1.4191,1.4177,1.4177,1.4178,1.4184,1.4184,1.4184,1.4183,1.4183,1.4183,1.4236,1.423,1.4201,1.4182,1.4168,1.4151,1.4145,1.413,1.4117,1.4125,1.4125,1.4138,1.4226,1.4248,1.4179,1.418,1.418,1.4181,1.4181,1.4127,1.4154,1.4109,1.4095,1.4075,1.4049,1.4061,1.4032,1.4022,1.4005,1.4024,1.4088,1.4096,1.4103,1.412,1.4023,1.4023,1.4023,1.4023,1.4066,1.4073,1.403,1.4008,1.3988,1.3996,1.3945,1.3941,1.394,1.3934,1.395,1.3975,1.3982,1.3985,1.3995,1.4011,1.3888,1.3888,1.3888,1.4,1.4005,1.396,1.3963,1.3949,1.3937,1.389,1.3863,1.3868,1.3883,1.393,1.3935,1.3975,1.3988,1.4,1.4015,1.4046,0,0]}]]